Temperature
23 23 22 22 25 26 28 28 29 29 29 28 28 27 26 25 24 22 21 20 20 19 19 19 19 19 19 19 19 19 19 19 19 19 19 19 19 19 19 19 19 19 19 19 19 19 19 19 19
23 22 23 25 26 27 28 29 29 29 29 28 28 27 26 24 23 21 21 20 20 19 19 19 19 19 19 19 19 19 19 19 19 19 19 19 19 19 19 19 19 19 19 19 19 19 19 19 19
23 23 25 27 28 28 28 29 29 29 29 28 27 26 25 23 22 21 21 20 20 19 19 19 19 19 19 19 19 19 19 19 19 19 19 19 19 19 19 19 19 19 19 19 18 18 18 18 19
23 26 27 29 29 30 30 30 30 30 29 28 27 25 23 22 22 21 21 20 20 19 19 19 19 19 19 19 19 19 19 19 19 19 19 19 19 19 19 19 19 19 19 18 18 18 18 18 19
25 28 29 30 30 31 31 31 30 30 29 28 27 24 23 22 21 21 21 21 20 19 19 19 19 19 19 19 19 19 19 19 19 19 19 19 19 19 18 18 19 19 18 18 18 18 18 18 19
27 29 29 30 30 31 32 31 31 30 29 28 26 24 22 22 21 21 21 21 20 19 19 20 19 19 19 19 19 19 19 19 19 19 19 19 19 19 19 19 19 19 18 18 18 18 18 19 19
29 30 30 30 31 31 31 31 30 30 29 28 27 25 22 22 21 21 21 21 20 20 19 19 19 19 19 19 19 19 19 19 19 19 19 19 19 19 19 19 19 19 18 18 18 18 18 19 19
31 31 31 31 31 31 31 31 30 29 29 28 27 25 23 21 21 21 21 21 20 20 19 19 19 19 19 19 19 19 19 19 19 19 19 19 19 19 19 19 19 19 19 19 19 19 19 19 19
31 31 31 31 32 32 32 31 30 29 28 27 27 25 23 22 21 21 21 20 20 20 20 19 19 19 19 19 19 19 19 19 19 19 19 18 18 18 18 18 19 19 19 19 19 19 19 19 19
32 31 32 33 33 32 32 31 31 29 28 27 25 24 23 22 22 21 21 21 20 20 20 20 20 19 19 19 19 19 19 19 18 18 18 18 18 18 18 18 19 19 19 19 18 18 19 18 18
33 32 33 33 33 33 33 32 31 30 28 27 25 24 23 22 22 22 22 21 21 20 20 20 20 20 19 19 19 19 19 19 18 18 18 18 18 18 18 19 19 19 18 18 18 18 18 18 18
34 34 34 34 33 33 32 32 31 30 29 27 25 24 23 23 23 22 22 21 21 21 21 20 20 20 20 19 19 19 19 19 19 19 19 19 19 19 19 19 19 19 18 18 18 18 18 18 19
34 34 34 34 33 33 32 31 31 29 28 27 26 24 24 23 23 23 22 22 21 21 21 20 20 20 20 19 19 19 19 19 19 19 19 19 19 19 19 19 19 19 19 19 19 19 18 19 19
34 34 33 33 33 33 32 31 30 29 28 27 26 25 24 24 23 23 22 22 21 21 21 20 20 20 20 19 19 19 20 19 19 19 19 19 19 19 19 19 19 19 19 19 19 19 19 19 19
33 33 33 33 33 33 32 30 30 29 28 28 26 25 25 24 24 23 22 22 21 21 20 20 20 20 20 19 19 19 19 19 19 19 19 19 19 19 19 19 19 19 19 19 19 19 19 19 19
33 32 31 33 34 33 31 28 30 29 29 28 27 26 25 24 24 23 23 22 21 21 20 20 20 20 20 19 19 20 20 19 19 19 19 19 19 19 19 19 19 19 19 19 19 19 19 19 19
32 31 31 32 34 34 32 30 31 30 30 28 27 26 25 25 24 23 23 22 21 21 20 20 20 20 20 19 19 19 20 19 19 19 19 19 19 19 19 19 19 19 19 19 19 19 19 19 19
31 32 32 32 34 34 32 32 32 31 30 29 28 27 26 25 24 23 23 22 21 21 20 20 20 20 19 19 19 19 19 19 19 19 19 19 19 19 19 19 19 19 19 19 19 19 19 19 19
33 33 32 33 34 34 33 32 32 32 31 30 28 27 26 25 24 24 23 22 21 20 20 20 20 20 20 19 19 19 19 19 19 19 19 19 19 19 19 19 19 19 19 19 19 19 19 19 19
33 33 32 33 34 34 32 32 32 32 31 31 29 28 27 26 24 24 23 22 21 21 20 20 20 20 20 19 19 19 19 20 19 20 20 19 19 19 19 19 19 19 19 19 19 19 19 19 19
33 33 33 32 33 34 32 31 31 32 32 31 30 29 28 26 25 24 23 23 22 21 20 20 20 20 20 19 19 19 19 19 20 20 19 19 19 19 19 19 19 19 19 19 19 19 19 19 19
33 34 34 33 32 32 32 30 30 31 31 32 31 30 28 27 26 24 24 23 22 21 21 20 20 20 20 19 19 19 19 19 20 20 20 19 19 19 19 19 19 19 19 19 19 19 19 19 19
33 34 34 33 33 32 32 31 30 31 30 31 31 30 29 28 27 25 24 23 23 22 21 21 20 20 20 20 20 19 19 19 19 19 19 19 19 19 19 19 19 19 19 19 19 19 19 19 19
34 34 34 33 33 31 32 32 30 31 31 31 32 31 30 29 27 26 25 24 23 23 22 21 21 20 20 20 20 19 19 19 19 19 19 19 19 19 19 19 19 19 19 19 19 19 19 19 19
34 32 31 30 30 30 32 32 31 32 32 33 32 31 30 29 28 27 25 24 24 23 22 22 21 20 20 20 20 20 19 19 19 19 19 19 19 19 19 19 19 19 19 19 19 19 19 18 19
33 33 30 29 29 30 31 31 32 33 33 32 32 31 30 29 28 27 26 25 24 23 23 22 21 20 20 20 20 20 19 19 19 19 19 19 19 19 20 19 19 19 19 18 18 19 19 18 18
33 33 33 32 31 30 30 31 32 33 33 32 31 30 29 29 28 27 26 25 24 23 23 22 21 21 20 20 20 20 19 19 19 19 19 19 19 19 19 19 19 19 19 19 18 18 18 18 18
33 33 32 31 29 29 30 30 30 30 31 32 31 30 29 28 28 27 26 25 24 24 23 22 22 21 20 20 20 19 19 19 19 19 19 19 19 19 19 19 19 19 19 18 18 18 18 18 18
32 32 32 31 30 29 28 29 31 31 31 31 30 29 29 28 28 26 26 25 24 24 23 22 22 21 20 20 19 19 19 19 19 19 19 19 19 19 19 19 19 19 18 18 18 18 18 18 18
33 32 32 30 29 30 29 29 32 31 31 30 29 28 28 27 27 26 25 25 24 24 23 22 21 21 20 20 20 19 19 19 19 19 19 19 19 19 19 19 19 18 18 18 18 18 18 18 18
Wind_Speed
9 11 9 6 3 1 11 12 12 12 13 13 13 14 16 15 11 10 9 11 15 16 17 17 17 17 17 17 17 16 17 17 16 16 16 16 16 15 15 15 15 14 14 14 13 12 12 11 10
9 11 8 4 1 6 12 12 12 12 11 12 14 16 17 15 14 12 11 12 15 16 16 16 17 16 16 16 16 15 16 16 15 15 15 15 14 14 14 14 14 14 13 12 12 11 11 10 9
11 13 5 2 5 10 12 11 11 11 10 11 13 14 11 10 11 9 12 13 14 15 16 17 16 16 16 15 15 14 14 14 14 14 14 13 13 13 13 13 13 12 12 11 11 11 10 9 8
7 6 3 1 11 13 12 10 9 11 11 11 12 11 11 11 10 12 13 14 15 15 17 17 16 16 15 15 14 14 13 13 13 13 13 12 12 12 12 12 12 11 11 10 10 10 9 8 6
9 4 1 7 12 13 12 11 11 12 12 13 15 14 12 12 14 14 13 14 15 15 16 17 16 16 15 14 14 13 13 12 12 12 12 12 11 11 11 11 10 10 10 9 9 8 7 6 5
5 2 2 8 12 13 12 12 12 13 12 13 16 15 10 12 12 12 12 12 14 15 16 17 16 16 15 14 13 13 12 11 11 11 11 11 10 10 10 10 9 9 8 8 7 7 6 5 3
5 2 4 8 10 13 11 11 11 10 11 11 13 13 10 12 11 12 12 12 13 14 15 15 15 14 14 13 12 12 12 11 11 11 10 10 9 9 9 9 8 7 6 6 6 5 4 3 2
4 2 4 8 10 12 10 11 10 11 10 10 10 10 11 13 13 13 12 12 12 12 12 13 14 14 13 13 12 12 12 11 11 10 10 9 9 9 9 9 7 6 5 5 4 4 3 3 3
4 2 5 8 10 9 10 11 10 12 12 12 13 15 17 18 15 14 12 11 10 10 9 10 11 12 13 14 14 12 12 12 11 11 11 10 8 9 9 8 8 6 6 5 5 4 4 5 6
1 3 7 7 9 9 9 10 9 11 12 13 16 18 19 17 15 14 13 12 11 10 9 8 8 9 9 10 12 11 11 11 10 9 10 9 6 7 8 10 9 7 7 6 6 7 7 7 6
4 6 7 8 9 8 8 9 10 10 11 13 17 19 18 17 15 14 13 12 12 11 9 9 8 8 7 6 8 7 7 9 8 7 7 6 5 5 7 7 7 7 8 7 7 8 7 6 6
3 5 6 7 8 7 8 10 11 11 12 15 17 19 17 16 14 13 13 13 12 11 10 9 9 7 5 5 5 6 5 6 6 7 5 4 2 2 3 3 5 6 6 5 4 4 5 4 2
2 4 5 6 6 8 9 9 11 13 14 16 18 17 16 15 13 12 12 12 12 11 9 10 9 7 5 3 1 4 4 5 6 6 4 3 3 2 2 1 1 2 3 3 2 2 2 2 2
0 2 3 4 6 7 8 7 9 12 14 16 16 15 15 14 14 12 12 11 11 10 9 10 10 8 6 3 1 2 4 5 5 5 5 2 3 2 2 1 1 1 2 2 2 2 2 2 2
0 1 1 3 5 7 8 7 8 10 14 15 15 14 14 14 13 12 12 12 12 10 9 9 9 9 7 5 4 3 3 5 4 5 6 3 4 3 1 1 2 1 2 1 2 2 2 3 2
3 5 4 4 5 7 5 6 8 11 13 13 13 13 13 13 13 12 12 11 11 11 9 8 9 10 8 5 3 3 3 3 3 5 6 5 4 3 2 2 2 3 3 2 2 2 2 2 2
6 7 5 4 5 6 5 7 11 12 13 13 13 13 13 13 13 12 12 12 11 11 10 8 6 9 8 6 3 2 3 3 3 4 5 6 6 5 4 2 2 4 3 2 2 1 1 2 2
6 4 4 5 4 5 5 7 11 12 12 13 13 13 13 13 13 13 12 12 12 11 10 9 7 7 8 6 3 1 2 3 3 4 5 6 5 5 4 3 4 4 2 1 1 0 1 2 3
8 5 4 3 4 4 4 5 9 10 11 12 13 13 14 13 13 14 13 13 13 12 11 10 9 8 6 5 5 4 4 4 4 4 6 5 5 5 4 2 2 2 2 2 1 1 2 3 2
7 6 5 4 3 4 2 2 5 8 10 12 13 14 14 14 14 14 14 13 13 12 11 10 9 9 8 6 5 4 4 4 4 3 5 6 5 4 4 3 3 3 2 2 2 2 2 3 2
9 6 5 5 5 4 3 5 6 6 7 10 12 13 15 15 16 15 15 14 14 13 12 11 10 9 9 7 5 4 4 3 3 4 4 4 4 4 4 2 2 2 2 2 3 3 3 3 3
8 6 6 7 7 6 6 5 6 6 6 9 11 12 13 15 16 16 15 14 14 14 13 11 10 9 9 8 6 7 6 5 5 4 4 5 5 4 5 4 3 2 3 2 4 2 2 3 3
8 8 8 9 10 9 9 6 5 7 7 8 10 12 13 15 16 16 16 15 14 14 13 12 10 9 9 8 7 6 6 5 4 4 4 5 5 5 5 4 3 2 3 2 2 1 3 2 3
8 11 12 11 10 10 8 7 4 7 7 6 8 9 10 12 15 15 15 14 12 12 12 12 10 9 9 9 8 8 7 6 5 4 5 5 4 5 5 5 4 3 3 3 3 2 4 3 3
9 10 8 8 7 7 7 7 2 5 6 5 7 9 9 9 11 13 14 14 13 13 12 12 12 10 9 9 8 8 8 7 7 6 5 5 4 5 6 6 5 3 3 4 3 3 4 4 4
10 11 8 8 7 6 4 4 2 5 6 6 5 7 8 8 9 10 11 12 12 13 12 12 12 11 10 10 8 7 7 7 6 7 6 5 4 4 4 5 5 5 4 4 3 3 4 4 4
10 11 11 11 11 9 4 2 3 5 7 8 7 7 8 7 8 10 11 10 10 9 9 11 11 11 11 10 9 7 7 7 7 6 7 6 5 5 4 5 5 5 4 4 3 3 4 3 3
11 11 8 7 7 8 5 3 2 5 5 7 7 7 7 7 6 6 8 8 9 9 9 9 10 10 9 9 9 9 8 7 7 7 6 5 5 4 3 4 5 5 5 5 4 4 4 4 4
9 11 8 7 8 8 6 2 5 6 5 6 6 6 6 5 6 5 5 7 7 8 9 8 9 9 9 9 8 7 7 7 7 6 6 6 5 4 4 4 5 5 5 5 4 5 5 5 5
10 11 11 8 7 7 7 4 2 5 6 6 6 7 6 5 5 4 4 5 5 6 7 8 8 9 9 8 7 7 6 7 7 7 7 6 6 6 6 6 5 6 6 5 6 7 6 5 5
Wind_Direction
214 227 230 247 244 143 73 68 66 62 65 65 62 66 65 59 70 94 116 111 112 115 118 117 115 115 113 112 111 110 108 106 104 102 100 99 98 98 97 97 98 97 98 98 98 98 99 100 100
237 238 237 248 250 77 72 70 71 72 76 79 71 72 72 70 81 102 112 114 117 118 119 117 117 116 115 114 114 113 111 110 107 106 105 103 102 101 100 99 99 99 99 99 98 99 101 102 102
255 256 255 222 69 73 75 78 85 89 81 77 77 66 66 82 90 108 119 120 115 115 115 118 121 118 118 117 117 116 114 113 112 111 109 107 105 103 102 102 102 101 101 100 98 99 99 99 102
253 240 225 97 72 76 80 83 94 92 86 81 85 78 77 83 101 117 123 120 117 118 118 123 124 122 122 122 122 119 117 116 116 114 112 109 107 106 105 104 102 101 101 100 100 101 101 100 101
247 262 214 78 77 80 80 80 81 83 80 81 88 94 89 92 106 119 126 123 123 121 121 127 128 127 126 125 126 124 122 121 120 119 115 111 110 109 108 107 104 102 104 104 103 103 106 104 99
263 259 55 78 82 81 78 79 80 84 88 95 100 101 99 110 114 123 124 123 121 120 122 127 131 130 130 129 130 130 130 129 125 123 121 120 120 119 116 111 109 106 106 109 110 110 111 110 107
264 319 82 86 87 84 78 77 80 87 90 90 102 106 117 122 125 124 121 119 118 122 128 134 136 134 134 134 134 137 138 137 133 131 132 133 133 132 128 120 118 114 114 117 118 121 124 131 164
270 308 69 86 87 85 84 81 82 90 86 93 102 115 131 134 132 124 119 116 119 124 131 137 142 144 146 144 148 148 147 147 147 146 149 151 150 150 146 139 133 131 129 132 140 147 159 184 216
287 351 61 74 83 89 92 90 90 93 90 80 81 108 129 136 133 130 126 123 123 123 130 140 142 150 151 151 153 157 156 158 161 166 170 173 176 169 164 142 146 152 158 167 181 192 204 217 224
130 70 67 74 86 94 94 98 104 106 102 98 98 111 128 137 140 140 139 137 135 134 134 136 142 147 152 149 148 161 164 163 177 172 176 189 178 162 149 147 158 171 181 195 214 228 235 234 228
93 84 82 85 88 94 96 99 95 102 111 120 126 131 138 144 147 146 145 146 141 140 140 143 140 139 140 131 148 155 152 154 169 166 176 176 166 154 140 154 168 183 193 206 209 226 236 232 220
90 96 98 94 99 96 89 91 90 91 105 121 129 137 143 148 149 150 148 147 142 142 146 143 132 120 114 122 139 150 154 157 156 163 180 162 156 135 142 161 178 181 194 197 200 208 230 243 249
104 101 103 109 109 99 91 90 100 102 110 120 129 140 147 150 151 148 142 140 141 146 146 135 121 113 109 105 166 153 145 144 151 156 163 171 143 137 134 143 189 190 187 178 206 225 226 245 236
50 83 96 109 115 116 104 101 102 116 122 126 134 142 151 153 153 149 147 145 142 146 142 132 130 129 135 157 192 137 133 143 152 152 149 176 139 116 122 167 283 281 227 186 213 221 206 241 239
179 125 177 174 159 137 110 84 109 133 133 135 141 147 152 155 154 155 153 150 149 149 147 143 149 148 160 169 185 163 161 151 150 145 148 171 142 150 152 213 230 254 253 220 237 242 222 239 242
248 228 205 195 166 143 130 135 152 155 141 140 143 150 154 159 161 159 156 153 150 153 152 162 167 155 165 177 185 172 154 143 166 162 154 168 157 181 217 224 213 232 239 221 224 237 243 253 262
233 236 198 198 189 162 166 145 152 162 151 150 154 158 161 164 165 163 162 159 153 152 155 165 167 154 163 172 187 199 152 173 190 178 165 171 185 197 223 226 217 245 241 229 251 177 272 280 277
260 242 197 205 193 183 173 152 158 167 162 159 164 165 168 171 172 169 169 164 157 154 157 161 167 158 161 167 178 197 181 192 204 184 166 170 195 205 227 221 221 249 260 264 293 327 281 259 259
257 269 270 236 199 200 191 167 165 171 173 164 166 171 174 177 174 171 175 168 164 163 165 165 172 166 169 173 180 186 193 202 211 190 169 179 203 207 225 255 237 255 246 251 261 272 272 265 259
260 265 264 275 228 229 182 187 181 183 189 175 172 176 178 176 173 173 176 175 172 170 170 172 179 175 179 183 188 194 194 204 205 196 161 187 195 208 220 212 233 228 219 226 256 244 269 275 263
265 261 263 266 272 255 223 209 211 213 204 175 175 177 176 176 175 180 181 181 179 178 179 181 184 181 186 187 185 200 190 213 217 184 173 188 200 211 243 212 243 240 216 201 231 235 245 266 277
268 275 276 274 266 256 240 237 211 199 202 185 178 175 176 175 177 181 182 184 186 182 182 182 182 182 183 191 196 199 198 202 215 196 183 184 200 220 223 221 231 243 257 193 234 186 246 257 275
271 278 276 267 266 265 249 250 200 181 206 201 182 178 179 175 177 181 183 184 188 185 183 179 176 180 181 192 200 206 214 209 211 201 187 192 194 212 222 214 220 224 253 224 246 221 249 258 272
268 274 266 261 264 263 261 262 216 182 188 189 186 176 174 175 174 176 177 178 184 185 182 175 171 178 185 194 201 205 216 219 220 214 195 202 205 210 213 210 207 216 237 235 232 239 247 252 274
247 261 263 257 252 258 264 259 183 159 169 165 158 157 167 168 169 169 173 176 184 187 184 176 171 178 186 194 205 208 218 220 219 226 216 218 225 213 208 207 186 202 220 231 231 235 247 247 259
250 251 255 268 267 265 250 260 146 132 129 119 127 136 135 143 155 163 169 175 184 187 184 177 172 178 186 194 200 204 208 215 219 220 227 218 228 232 207 185 181 198 221 235 222 242 243 235 247
262 259 265 272 278 277 247 212 118 121 123 126 131 125 129 139 149 158 159 169 178 185 183 180 170 176 186 194 193 198 203 213 219 214 216 229 229 225 205 189 191 199 214 234 239 239 255 243 239
253 271 280 280 285 287 282 262 182 137 116 114 108 116 124 135 139 143 150 161 172 179 182 177 170 177 184 190 196 199 201 209 217 224 220 219 228 234 210 202 199 204 216 224 232 248 244 245 248
247 253 260 278 282 284 283 290 98 131 121 116 116 114 113 116 129 142 153 156 157 164 176 183 176 176 184 193 198 202 196 203 208 218 223 224 228 227 223 216 217 214 217 221 229 247 247 239 247
255 262 260 256 260 274 276 271 98 113 102 90 89 94 96 95 110 134 148 138 152 161 168 176 184 185 188 190 194 201 200 203 210 215 219 221 223 224 224 220 222 225 220 216 225 240 247 237 239
Height
1488 1488 1488 1491 1490 1490 1488 1483 1481 1482 1483 1486 1487 1488 1493 1498 1504 1517 1518 1518 1519 1520 1522 1524 1526 1528 1530 1532 1534 1536 1538 1539 1541 1542 1544 1545 1546 1547 1548 1549 1550 1551 1552 1552 1553 1554 1555 1555 1556
1487 1489 1492 1490 1490 1495 1493 1483 1484 1485 1486 1488 1490 1493 1497 1504 1509 1515 1518 1520 1521 1523 1525 1526 1528 1531 1533 1535 1537 1538 1540 1542 1543 1545 1546 1547 1549 1550 1550 1551 1552 1553 1554 1554 1555 1556 1556 1557 1558
1488 1490 1491 1486 1485 1491 1492 1484 1485 1486 1488 1489 1493 1498 1503 1510 1514 1517 1520 1521 1523 1525 1526 1528 1530 1533 1535 1537 1539 1541 1542 1544 1545 1547 1548 1549 1551 1552 1552 1553 1554 1555 1555 1556 1557 1557 1558 1559 1560
1489 1490 1488 1484 1485 1482 1482 1482 1483 1486 1489 1491 1494 1502 1510 1514 1516 1519 1521 1523 1524 1526 1528 1529 1532 1534 1537 1539 1541 1543 1544 1546 1547 1549 1550 1551 1552 1554 1554 1555 1556 1557 1557 1558 1559 1559 1560 1560 1561
1491 1488 1485 1485 1484 1480 1479 1482 1484 1487 1490 1493 1498 1507 1513 1517 1518 1521 1523 1525 1526 1528 1529 1531 1533 1536 1538 1540 1543 1544 1546 1547 1549 1550 1552 1553 1554 1555 1556 1557 1558 1558 1559 1560 1560 1561 1562 1562 1563
1490 1484 1488 1490 1485 1480 1480 1483 1486 1489 1493 1496 1500 1508 1516 1519 1520 1522 1524 1527 1529 1530 1531 1533 1535 1538 1540 1542 1544 1546 1548 1549 1551 1552 1553 1555 1556 1557 1558 1559 1559 1560 1561 1561 1562 1562 1563 1564 1564
1488 1484 1486 1486 1486 1484 1483 1485 1488 1491 1494 1497 1501 1508 1517 1520 1522 1524 1526 1528 1530 1532 1533 1535 1537 1539 1541 1543 1545 1547 1549 1551 1552 1553 1555 1556 1558 1558 1559 1560 1561 1562 1562 1563 1563 1564 1564 1565 1566
1484 1482 1482 1482 1485 1486 1485 1487 1490 1492 1496 1499 1501 1507 1516 1521 1523 1525 1527 1530 1532 1534 1536 1537 1539 1541 1542 1544 1546 1548 1550 1552 1553 1555 1557 1558 1559 1560 1561 1561 1562 1563 1563 1564 1565 1565 1566 1566 1567
1483 1484 1488 1484 1484 1485 1485 1488 1492 1495 1498 1501 1504 1508 1515 1520 1524 1526 1529 1531 1533 1535 1537 1539 1541 1542 1544 1545 1547 1549 1551 1553 1555 1557 1558 1559 1560 1561 1562 1563 1563 1564 1565 1565 1566 1566 1567 1567 1568
1480 1487 1484 1479 1480 1483 1485 1488 1491 1495 1500 1505 1509 1513 1517 1521 1524 1527 1530 1532 1534 1536 1539 1540 1542 1544 1545 1547 1548 1550 1552 1554 1556 1558 1560 1561 1562 1563 1564 1564 1564 1565 1566 1566 1567 1567 1568 1568 1569
1478 1482 1480 1479 1481 1483 1485 1487 1490 1494 1500 1505 1510 1515 1519 1522 1525 1528 1530 1533 1535 1537 1539 1541 1543 1545 1546 1548 1549 1552 1554 1556 1557 1559 1561 1562 1564 1564 1565 1565 1565 1566 1566 1567 1567 1568 1568 1569 1569
1478 1478 1479 1480 1483 1484 1486 1488 1492 1496 1501 1505 1510 1514 1519 1522 1525 1528 1531 1533 1536 1538 1540 1542 1544 1545 1547 1549 1551 1553 1555 1557 1558 1559 1561 1563 1564 1565 1566 1566 1566 1567 1567 1568 1568 1569 1569 1569 1570
1478 1478 1480 1481 1483 1485 1487 1490 1494 1498 1502 1506 1511 1515 1519 1523 1526 1529 1532 1534 1536 1538 1541 1543 1544 1545 1547 1549 1552 1554 1556 1557 1558 1560 1562 1563 1565 1565 1566 1567 1567 1568 1568 1569 1568 1569 1569 1569 1570
1480 1480 1481 1482 1483 1485 1488 1492 1496 1501 1504 1507 1512 1516 1520 1523 1526 1529 1532 1534 1537 1539 1541 1543 1544 1546 1548 1550 1552 1554 1556 1558 1559 1561 1562 1563 1565 1565 1566 1567 1567 1568 1568 1569 1569 1569 1569 1569 1569
1481 1482 1483 1482 1482 1484 1488 1496 1497 1501 1504 1507 1512 1516 1520 1523 1526 1529 1531 1534 1536 1539 1541 1543 1545 1546 1548 1551 1553 1555 1556 1558 1560 1561 1562 1563 1564 1565 1566 1567 1567 1568 1568 1568 1568 1569 1569 1569 1569
1483 1487 1491 1482 1479 1483 1491 1505 1498 1500 1503 1507 1511 1516 1519 1522 1525 1528 1531 1534 1536 1538 1541 1543 1545 1546 1548 1551 1553 1555 1557 1558 1560 1561 1562 1563 1564 1565 1565 1566 1567 1567 1567 1568 1568 1568 1568 1568 1568
1487 1493 1492 1485 1477 1479 1486 1495 1495 1497 1500 1505 1510 1514 1518 1521 1524 1527 1530 1533 1535 1537 1539 1542 1545 1546 1548 1550 1553 1555 1556 1558 1560 1561 1561 1562 1563 1564 1565 1565 1566 1566 1567 1567 1567 1567 1567 1567 1567
1494 1489 1487 1485 1476 1477 1483 1488 1490 1494 1497 1502 1507 1511 1516 1519 1523 1526 1529 1531 1533 1536 1538 1541 1543 1545 1547 1550 1552 1554 1556 1557 1559 1560 1561 1561 1562 1563 1564 1564 1565 1565 1566 1566 1566 1566 1566 1565 1565
1481 1483 1485 1480 1473 1477 1482 1485 1486 1490 1494 1498 1504 1508 1512 1517 1521 1524 1527 1530 1532 1534 1536 1539 1541 1544 1546 1548 1550 1552 1554 1556 1558 1559 1560 1561 1561 1562 1563 1563 1564 1564 1564 1565 1565 1565 1564 1564 1564
1476 1482 1484 1478 1471 1475 1483 1486 1484 1487 1490 1494 1499 1504 1509 1514 1518 1522 1525 1528 1530 1532 1534 1537 1539 1542 1544 1547 1549 1551 1553 1555 1557 1558 1558 1559 1560 1561 1562 1561 1562 1562 1563 1563 1563 1563 1563 1562 1562
1477 1480 1481 1483 1475 1474 1481 1491 1487 1486 1488 1491 1495 1499 1504 1509 1514 1519 1522 1525 1528 1530 1531 1534 1537 1540 1542 1545 1547 1550 1552 1553 1555 1556 1557 1558 1558 1559 1560 1560 1560 1561 1561 1561 1561 1561 1561 1561 1562
1482 1472 1473 1477 1483 1487 1484 1503 1491 1485 1486 1487 1491 1496 1500 1505 1510 1515 1519 1522 1525 1527 1529 1532 1534 1537 1540 1543 1545 1547 1549 1551 1552 1554 1555 1555 1556 1557 1558 1558 1558 1559 1560 1560 1560 1560 1560 1560 1560
1475 1469 1471 1475 1479 1484 1481 1492 1492 1483 1489 1486 1487 1491 1495 1500 1506 1511 1515 1518 1522 1525 1528 1530 1532 1534 1537 1540 1542 1545 1547 1549 1551 1552 1553 1553 1554 1555 1556 1556 1556 1557 1557 1558 1558 1558 1558 1558 1558
1470 1472 1473 1474 1479 1497 1484 1489 1495 1482 1482 1481 1483 1487 1492 1496 1501 1507 1511 1516 1520 1523 1525 1527 1529 1532 1534 1537 1539 1542 1544 1546 1548 1549 1550 1551 1552 1552 1553 1554 1554 1554 1555 1556 1556 1556 1556 1556 1556
1472 1483 1497 1502 1503 1501 1481 1485 1486 1473 1473 1476 1480 1485 1490 1494 1499 1504 1509 1513 1517 1520 1522 1525 1526 1529 1531 1534 1536 1538 1540 1542 1544 1546 1547 1548 1549 1550 1550 1551 1551 1552 1552 1553 1554 1554 1554 1554 1554
1472 1478 1499 1513 1510 1498 1486 1489 1478 1468 1471 1475 1480 1484 1489 1493 1498 1502 1506 1510 1514 1517 1520 1522 1524 1526 1529 1531 1532 1534 1536 1538 1540 1542 1544 1545 1546 1547 1548 1549 1549 1549 1550 1551 1551 1552 1552 1552 1552
1474 1474 1470 1483 1489 1496 1491 1483 1475 1470 1473 1476 1481 1485 1489 1493 1497 1501 1505 1509 1512 1515 1517 1519 1521 1523 1526 1528 1529 1531 1533 1534 1536 1539 1541 1542 1543 1545 1546 1546 1547 1547 1548 1548 1549 1549 1549 1550 1549
1468 1470 1474 1486 1503 1509 1499 1493 1489 1482 1478 1478 1482 1485 1489 1493 1497 1500 1503 1506 1509 1511 1514 1518 1519 1521 1523 1525 1526 1528 1529 1531 1533 1535 1537 1538 1540 1541 1543 1543 1543 1544 1545 1545 1546 1546 1547 1547 1547
1472 1473 1476 1482 1487 1502 1512 1503 1476 1478 1478 1480 1483 1486 1489 1492 1495 1499 1502 1505 1507 1509 1513 1515 1518 1519 1521 1522 1524 1525 1527 1528 1530 1531 1532 1534 1536 1537 1538 1539 1540 1541 1541 1542 1542 1543 1543 1544 1544
1466 1471 1473 1489 1493 1489 1499 1498 1472 1475 1479 1483 1486 1488 1490 1493 1496 1499 1502 1504 1507 1509 1510 1513 1514 1516 1517 1519 1521 1522 1524 1525 1526 1527 1529 1531 1532 1533 1534 1535 1536 1537 1537 1538 1539 1539 1540 1540 1540